Home > Weather > Perth > Past weeks

Flag for Australia Weather for the Past 2 Weeks in Perth, Western Australia, Australia

Now
59 °F

Sprinkles. Overcast.


Feels Like: 58 °F
Forecast: 56 / 64 °F
Wind: 7 mph from Northwest

Location: Belmont Perth Airport

Current Time: May 6, 2016 at 11:04:07 PM

Latest Report: May 6, 2016 at 10:00 PM


Visibility: 6 mi

Pressure: 29.68 "Hg

Humidity: 94%

Dew Point: 57 °F

Location of PerthLocation

Historic Weather in Perth — Graph

°F

Perth Temperature Yesterday

Maximum temperature yesterday: 70 °F (at 11:30 AM)
Minimum temperature yesterday: 54 °F (at 5:30 AM)
Average temperature yesterday: 62 °F

High & Low Weather Summary for the Past Weeks

 TemperatureHumidityPressure
High84 °F (Apr 23, 3:00 PM)100% (Apr 25, 12:00 AM)30.33 "Hg (Apr 25, 12:00 AM)
Low46 °F (May 2, 1:30 AM)26% (Apr 23, 4:00 PM)29.68 "Hg (May 6, 9:00 PM)
Average62 °F74%30.03 "Hg
* Reported Apr 21 10:00 PM — May 6 10:00 PM, Perth, Weather by CustomWeather, © 2016

Note: Actual official high and low records may vary slightly from our data, if they occured in-between our weather recording intervals... More about our weather records

Advertising

Perth Weather History for the Previous 24 Hours

Scroll right to see more
 ConditionsComfort  
Time TempWeatherWind HumidityBarometerVisibility
10:00 PM
Fri, May 6
59 °FSprinkles. Overcast.7 mph94%29.68 "Hg6 mi
9:30 PM59 °FSprinkles. Overcast.8 mph94%29.71 "Hg4 mi
9:00 PM61 °FScattered showers. Overcast.9 mph77%29.68 "HgN/A
8:30 PM61 °FPassing clouds.7 mph77%29.71 "HgN/A
8:00 PM61 °FPassing clouds.8 mph77%29.71 "HgN/A
7:30 PM63 °FClear.12 mph68%29.71 "Hg10 mi
7:00 PM64 °FPassing clouds.10 mph64%29.71 "HgN/A
6:30 PM64 °FScattered showers. Partly cloudy.8 mph64%29.71 "HgN/A
6:00 PM64 °FScattered showers. Passing clouds.9 mph64%29.74 "HgN/A
5:30 PM64 °FPassing clouds.10 mph60%29.74 "HgN/A
5:00 PM64 °FPassing clouds.9 mph64%29.74 "HgN/A
4:00 PM66 °FScattered showers. Scattered clouds.10 mph60%29.74 "HgN/A
3:00 PM68 °FScattered clouds.10 mph60%29.77 "HgN/A
2:30 PM68 °FScattered clouds.13 mph60%29.77 "HgN/A
2:00 PM68 °FScattered clouds.9 mph64%29.77 "HgN/A
1:30 PM66 °FScattered clouds.7 mph73%29.77 "HgN/A
1:00 PM64 °FBroken clouds.6 mph78%29.80 "HgN/A
12:30 PM64 °FBroken clouds.7 mph73%29.80 "HgN/A
12:00 PM63 °FScattered clouds.5 mph83%29.83 "HgN/A
11:30 AM61 °FDrizzle. Broken clouds.6 mph88%29.86 "Hg2 mi
11:00 AM63 °FPartly sunny.5 mph77%29.86 "HgN/A
10:30 AM63 °FBroken clouds.6 mph77%29.86 "HgN/A
10:00 AM61 °FScattered clouds.6 mph83%29.86 "HgN/A
9:30 AM59 °FScattered showers. Partly sunny.5 mph88%29.89 "HgN/A
9:00 AM61 °FDrizzle. Broken clouds.3 mph88%29.92 "Hg5 mi
8:30 AM61 °FScattered showers. Broken clouds.6 mph88%29.89 "HgN/A
8:00 AM57 °FScattered showers. Passing clouds.5 mph100%29.89 "HgN/A
7:30 AM55 °FScattered clouds.6 mph100%29.89 "HgN/A
7:00 AM55 °FScattered clouds.2 mph100%29.89 "HgN/A
6:30 AM55 °FScattered clouds.3 mph100%29.89 "HgN/A
6:00 AM57 °FPartly sunny.6 mph94%29.89 "HgN/A
5:30 AM57 °FPassing clouds.No wind94%29.89 "HgN/A
5:00 AM57 °FCool.3 mph94%29.89 "HgN/A
4:30 AM57 °FPassing clouds.No wind94%29.89 "HgN/A
4:00 AM57 °FPassing clouds.No wind94%29.89 "HgN/A
3:30 AM55 °FPartly cloudy.1 mph100%29.89 "HgN/A
3:00 AM55 °FPartly cloudy.6 mph100%29.89 "HgN/A
2:30 AM55 °FClear.5 mph100%29.89 "Hg10 mi
2:00 AM57 °FClear.5 mph94%29.89 "Hg10 mi
1:00 AM61 °FClear.7 mph83%29.92 "Hg10 mi
12:30 AM61 °FPassing clouds.7 mph83%29.92 "HgN/A
12:00 AM61 °FClear.7 mph83%29.92 "Hg10 mi
11:30 PM
Thu, May 5
61 °FClear.9 mph83%29.95 "Hg10 mi
11:00 PM61 °FClear.8 mph83%29.95 "Hg10 mi
Weather by CustomWeather, © 2016

See weather overviewHow to use our weather pages